Погода в Рубежном

Россия / Чеченская Республика     43°43′48″N   45°10′12″E
темп.,
°C
ветер,
м/с
пор.,
м/с
влажн.,
%
обл.,
%
осадки,
мм/ч
давл.,
гПа
погр.,
м
4 августа, ср
ср400:00+28з22480 0.0 101126
03:00+26з33490 0.0 101243
06:00+25з48560 0.0 1012193
09:00+31зсз56380 0.0 1012620
12:00+37зсз44230 0.0 10112191
15:00+39ссз44180 0.0 10103312
18:00+37зсз4520100 0.0 1010407
21:00+30юз3535100 0.0 101184
5 августа, чт
чт500:00+29з61245100 0.0 1011326
03:00+26з7115276 0.0 1011325
06:00+24з71064100 0.3 1013348
09:00+26зсз6759100 0.8 1013491
12:00+33сз343598 0.0 10121117
15:00+36ссз23260 0.0 10102060
18:00+36с22280 0.0 100997
21:00+30з33410 0.0 101041
6 августа, пт
пт600:00+28сз22460 0.0 101027
03:00+26всв12570 0.0 100923
06:00+26в12600 0.0 1010101
09:00+31в34420 0.0 1010772
12:00+36в56260 0.0 10081783
15:00+39в77180 0.0 10052661
18:00+35в811210 0.0 1005780
21:00+30в611315 0.0 1006552
7 августа, сб
сб700:00+26в4858100 0.0 1006405
03:00+24вюв256999 0.0 1005189
06:00+24в22745 0.0 1005124
09:00+30в224638 0.0 1004556
12:00+36всв123097 0.0 10031045
15:00+40юв23205 0.0 10011423
18:00+38в710188 0.0 1001589
21:00+31вюв003099 0.1 100412
8 августа, вс
вс800:00+28з61053100 0.1 1005352
03:00+26з59575 0.1 1005303
06:00+25з611634 0.0 1007343
09:00+31з67465 0.0 1008776
12:00+35зсз55311 0.0 10071371
15:00+38зсз33270 0.0 10061913
18:00+36з572960 0.0 1007544
21:00+31зюз484316 0.0 1009283